Temp
-12 -11 -11 -11 -11 -12 -12 -12 -12 -13 -13 -12 -12 -12 -12 -12 -12 -12 -12 -12 -12 -11 -11 -11 -11 -11 -11 -11 -12 -12 -13 -13 -12 -13 -15 -20 -23 -23 -23 -24 -24 -24 -24 -25 -24 -24 -22
-11 -12 -11 -11 -12 -12 -13 -13 -13 -13 -13 -13 -13 -12 -12 -12 -12 -12 -12 -12 -12 -12 -12 -11 -12 -12 -11 -12 -13 -14 -14 -13 -13 -15 -19 -23 -24 -24 -24 -25 -25 -24 -25 -25 -25 -24 -22
-11 -11 -11 -12 -12 -12 -12 -13 -13 -13 -13 -13 -13 -12 -12 -12 -12 -12 -12 -12 -12 -12 -12 -12 -12 -13 -13 -13 -14 -15 -15 -14 -16 -18 -22 -25 -25 -25 -24 -25 -25 -25 -25 -25 -25 -24 -23
-12 -12 -12 -12 -12 -12 -12 -13 -13 -13 -12 -13 -13 -13 -13 -13 -13 -12 -12 -12 -13 -13 -13 -13 -12 -14 -15 -15 -16 -16 -16 -17 -18 -20 -22 -25 -25 -25 -25 -25 -25 -26 -25 -25 -25 -25 -23
-12 -13 -12 -12 -13 -13 -13 -13 -13 -13 -13 -13 -13 -13 -13 -13 -13 -13 -13 -13 -13 -13 -13 -13 -14 -15 -15 -16 -17 -17 -17 -19 -20 -20 -23 -24 -25 -25 -25 -25 -26 -26 -26 -26 -25 -24 -23
-12 -12 -12 -12 -12 -12 -13 -13 -13 -13 -13 -13 -13 -13 -13 -13 -13 -13 -13 -13 -13 -13 -13 -14 -15 -15 -16 -17 -17 -18 -18 -19 -20 -20 -22 -22 -24 -25 -25 -25 -26 -26 -26 -26 -25 -24 -23
-12 -12 -12 -12 -12 -12 -12 -13 -13 -13 -13 -13 -13 -13 -13 -13 -13 -13 -13 -13 -13 -13 -14 -14 -16 -15 -17 -18 -18 -18 -19 -20 -20 -20 -20 -21 -23 -24 -25 -25 -25 -25 -25 -25 -24 -23 -21
-12 -12 -12 -12 -12 -12 -13 -13 -13 -13 -13 -14 -14 -14 -13 -13 -13 -13 -14 -14 -14 -14 -14 -15 -15 -16 -18 -18 -19 -18 -19 -19 -19 -20 -20 -20 -21 -23 -23 -23 -24 -23 -24 -24 -23 -22 -22
-12 -12 -12 -12 -13 -13 -13 -13 -13 -13 -13 -14 -13 -13 -13 -13 -14 -14 -14 -14 -14 -14 -14 -15 -15 -16 -18 -18 -19 -18 -19 -19 -19 -19 -20 -20 -20 -20 -21 -22 -22 -22 -22 -22 -22 -20 -21
-12 -12 -12 -13 -13 -13 -13 -13 -13 -13 -14 -14 -14 -13 -14 -14 -14 -14 -14 -14 -14 -14 -14 -15 -16 -17 -18 -18 -19 -18 -19 -19 -19 -19 -20 -20 -20 -20 -20 -20 -21 -20 -21 -21 -21 -20 -20
-12 -12 -13 -13 -13 -13 -13 -13 -13 -13 -14 -14 -13 -14 -15 -14 -14 -14 -14 -14 -14 -14 -14 -15 -16 -17 -18 -18 -19 -19 -19 -19 -19 -19 -20 -20 -19 -19 -19 -19 -19 -19 -19 -20 -20 -20 -19
-13 -13 -13 -14 -13 -13 -13 -13 -13 -13 -14 -14 -14 -14 -15 -14 -14 -14 -14 -14 -14 -14 -14 -15 -16 -16 -17 -19 -18 -19 -19 -19 -19 -19 -20 -19 -19 -19 -19 -19 -19 -19 -18 -19 -19 -19 -19
-14 -14 -14 -13 -13 -13 -13 -13 -13 -13 -14 -14 -14 -15 -14 -14 -14 -14 -14 -14 -14 -14 -14 -15 -15 -15 -16 -18 -18 -18 -18 -19 -19 -19 -19 -19 -19 -18 -18 -18 -18 -19 -17 -18 -18 -17 -17
-13 -13 -13 -13 -13 -13 -13 -13 -13 -13 -14 -14 -15 -15 -15 -15 -14 -14 -14 -14 -14 -14 -15 -15 -15 -15 -16 -17 -18 -18 -19 -19 -18 -19 -18 -19 -19 -18 -18 -17 -17 -18 -18 -17 -17 -17 -18
-13 -13 -13 -12 -13 -13 -13 -13 -13 -14 -14 -14 -14 -15 -15 -15 -14 -14 -15 -15 -14 -15 -15 -15 -16 -15 -16 -16 -17 -18 -19 -19 -18 -18 -18 -18 -18 -19 -18 -17 -17 -17 -17 -18 -17 -17 -17
-13 -13 -12 -13 -13 -13 -13 -14 -14 -14 -14 -14 -14 -15 -15 -15 -15 -15 -15 -15 -15 -15 -15 -15 -15 -16 -16 -17 -17 -17 -18 -18 -18 -18 -18 -17 -18 -19 -18 -18 -17 -17 -17 -17 -17 -16 -16
-13 -13 -13 -13 -13 -13 -14 -14 -14 -14 -14 -14 -15 -15 -15 -15 -15 -15 -15 -15 -15 -15 -15 -15 -15 -16 -16 -17 -17 -17 -17 -18 -18 -18 -18 -18 -17 -18 -18 -18 -17 -17 -17 -17 -17 -17 -17
-13 -14 -14 -14 -14 -14 -14 -13 -14 -14 -14 -14 -15 -15 -15 -16 -16 -16 -16 -16 -16 -16 -16 -16 -15 -16 -16 -16 -16 -17 -17 -17 -17 -18 -18 -18 -17 -17 -18 -18 -17 -17 -17 -17 -17 -18 -17
-13 -14 -14 -14 -14 -14 -14 -13 -14 -15 -15 -15 -15 -16 -16 -16 -16 -16 -16 -16 -16 -16 -16 -16 -16 -16 -16 -16 -16 -17 -17 -17 -17 -18 -18 -18 -18 -18 -18 -18 -18 -18 -18 -18 -18 -17 -17
-13 -13 -13 -14 -14 -14 -13 -14 -14 -16 -16 -16 -16 -16 -16 -16 -17 -16 -16 -17 -17 -16 -16 -16 -16 -17 -17 -16 -16 -16 -17 -17 -18 -18 -17 -18 -18 -18 -18 -18 -18 -18 -18 -18 -18 -17 -17
-13 -13 -14 -14 -14 -14 -14 -15 -15 -16 -16 -16 -16 -16 -16 -17 -17 -17 -17 -17 -17 -17 -17 -17 -17 -17 -17 -17 -17 -17 -17 -17 -18 -18 -18 -17 -17 -18 -18 -18 -18 -18 -18 -18 -17 -17 -16
-13 -14 -15 -14 -14 -14 -15 -16 -16 -16 -16 -17 -17 -17 -16 -17 -17 -17 -17 -17 -17 -17 -17 -17 -17 -17 -17 -18 -18 -17 -17 -17 -18 -18 -18 -18 -17 -18 -18 -18 -18 -17 -18 -18 -17 -17 -17
-14 -15 -15 -14 -15 -15 -16 -16 -16 -17 -17 -17 -17 -17 -17 -17 -17 -17 -17 -18 -18 -18 -17 -18 -18 -18 -18 -19 -20 -20 -19 -18 -18 -19 -19 -18 -18 -18 -17 -18 -19 -18 -17 -17 -17 -17 -17
-15 -15 -15 -15 -16 -16 -17 -17 -17 -17 -17 -17 -18 -18 -18 -18 -18 -18 -18 -18 -18 -18 -18 -18 -19 -19 -21 -22 -23 -23 -22 -22 -21 -21 -21 -19 -19 -18 -18 -18 -18 -18 -17 -17 -17 -17 -17
-14 -15 -16 -16 -16 -17 -17 -17 -17 -17 -17 -18 -19 -19 -18 -18 -18 -19 -18 -18 -19 -19 -20 -20 -22 -23 -24 -25 -26 -25 -24 -24 -23 -23 -22 -21 -20 -19 -19 -18 -18 -18 -18 -18 -17 -17 -17
-15 -15 -16 -16 -17 -17 -17 -17 -18 -18 -18 -19 -19 -19 -19 -19 -19 -19 -19 -19 -19 -20 -20 -22 -24 -25 -26 -26 -26 -26 -25 -25 -25 -24 -23 -22 -21 -20 -20 -19 -19 -18 -18 -18 -18 -17 -17
-16 -16 -16 -17 -17 -17 -18 -18 -18 -18 -19 -19 -19 -20 -20 -20 -20 -20 -20 -20 -21 -21 -22 -24 -25 -25 -25 -26 -26 -26 -26 -26 -26 -25 -24 -23 -22 -21 -21 -20 -19 -20 -19 -19 -19 -18 -18
-16 -16 -17 -17 -17 -18 -18 -18 -19 -19 -19 -20 -19 -20 -21 -21 -20 -20 -20 -21 -21 -23 -24 -25 -25 -25 -25 -26 -26 -26 -26 -26 -26 -25 -25 -24 -23 -22 -22 -21 -20 -20 -20 -19 -19 -19 -19
-17 -17 -17 -18 -18 -18 -19 -19 -19 -19 -20 -20 -21 -21 -22 -21 -21 -20 -21 -22 -23 -24 -24 -25 -25 -25 -25 -26 -26 -26 -26 -26 -26 -26 -25 -25 -24 -23 -23 -22 -22 -21 -21 -20 -20 -20 -19
Height
5812 5809 5805 5802 5799 5795 5791 5788 5784 5780 5776 5772 5768 5764 5760 5755 5750 5746 5741 5736 5731 5725 5720 5715 5709 5703 5696 5690 5682 5673 5665 5654 5643 5627 5608 5595 5588 5582 5580 5577 5573 5575 5583 5582 5586 5586 5594
5809 5805 5802 5798 5794 5790 5787 5784 5780 5775 5771 5766 5761 5757 5753 5748 5743 5739 5734 5729 5724 5718 5712 5707 5700 5693 5687 5681 5672 5663 5652 5640 5626 5607 5591 5580 5575 5569 5567 5563 5561 5566 5567 5570 5571 5577 5579
5805 5801 5798 5794 5790 5786 5782 5778 5774 5770 5765 5761 5756 5751 5746 5742 5737 5732 5727 5722 5716 5711 5705 5699 5692 5685 5679 5672 5662 5654 5641 5627 5610 5594 5581 5571 5566 5563 5560 5557 5555 5556 5556 5558 5562 5569 5568
5800 5796 5792 5789 5785 5781 5777 5772 5767 5763 5758 5754 5749 5745 5740 5735 5730 5724 5719 5714 5708 5702 5696 5690 5685 5677 5670 5663 5656 5645 5633 5618 5603 5588 5574 5565 5561 5558 5554 5552 5548 5547 5548 5548 5555 5558 5564
5795 5791 5787 5783 5779 5775 5770 5766 5761 5756 5752 5747 5742 5737 5732 5727 5721 5716 5711 5705 5699 5693 5687 5681 5676 5670 5665 5657 5650 5639 5627 5614 5600 5586 5573 5563 5557 5553 5551 5547 5543 5542 5541 5540 5544 5549 5559
5790 5785 5781 5777 5772 5767 5763 5759 5754 5750 5745 5739 5734 5729 5724 5719 5713 5708 5702 5696 5690 5683 5676 5672 5669 5664 5658 5651 5643 5634 5623 5613 5600 5587 5577 5565 5556 5552 5550 5545 5541 5538 5537 5537 5540 5547 5555
5784 5779 5774 5770 5766 5761 5756 5751 5747 5742 5736 5730 5725 5720 5715 5709 5704 5698 5693 5688 5683 5677 5669 5666 5661 5656 5650 5646 5638 5630 5622 5614 5603 5591 5579 5567 5560 5553 5546 5541 5539 5537 5537 5539 5543 5550 5559
5777 5772 5767 5763 5758 5753 5748 5743 5739 5733 5728 5722 5716 5711 5706 5701 5696 5691 5685 5679 5675 5671 5666 5659 5655 5650 5645 5641 5634 5627 5622 5615 5604 5595 5585 5576 5568 5557 5550 5545 5542 5542 5542 5544 5550 5556 5563
5770 5765 5760 5756 5750 5746 5742 5737 5732 5727 5721 5717 5712 5705 5700 5694 5689 5684 5678 5673 5669 5664 5659 5654 5649 5644 5641 5637 5630 5625 5621 5614 5606 5598 5590 5581 5572 5564 5558 5555 5550 5549 5549 5553 5559 5565 5569
5763 5758 5753 5748 5743 5739 5735 5731 5726 5721 5717 5712 5706 5700 5695 5690 5686 5679 5673 5669 5664 5659 5654 5651 5646 5641 5637 5632 5628 5624 5619 5616 5608 5600 5592 5586 5579 5571 5564 5563 5558 5556 5558 5561 5567 5572 5576
5757 5751 5746 5741 5738 5734 5729 5726 5722 5717 5711 5707 5702 5696 5692 5686 5682 5677 5672 5666 5661 5656 5652 5648 5642 5638 5633 5629 5625 5622 5618 5614 5609 5603 5598 5592 5584 5579 5571 5567 5562 5563 5567 5569 5573 5574 5580
5750 5745 5741 5737 5734 5730 5724 5719 5715 5711 5705 5701 5696 5692 5689 5684 5679 5673 5667 5662 5659 5656 5648 5645 5640 5635 5630 5626 5621 5618 5615 5612 5608 5604 5600 5596 5587 5584 5580 5573 5570 5568 5574 5577 5578 5582 5586
5747 5743 5740 5735 5730 5726 5720 5714 5709 5705 5699 5694 5691 5687 5684 5680 5675 5670 5664 5659 5656 5651 5648 5643 5637 5633 5627 5622 5619 5616 5613 5609 5606 5604 5600 5597 5592 5588 5585 5582 5578 5577 5581 5584 5586 5587 5589
5744 5740 5735 5730 5725 5719 5713 5707 5703 5699 5694 5690 5686 5683 5679 5675 5671 5666 5661 5657 5652 5647 5643 5638 5632 5628 5623 5619 5617 5615 5612 5608 5605 5602 5600 5598 5593 5589 5587 5585 5584 5583 5586 5587 5589 5591 5595
5738 5733 5728 5724 5719 5712 5707 5703 5698 5694 5691 5686 5681 5677 5674 5670 5665 5660 5657 5652 5647 5643 5640 5635 5631 5625 5621 5617 5614 5611 5609 5606 5603 5601 5600 5596 5596 5592 5590 5590 5590 5589 5589 5591 5591 5592 5595
5733 5728 5722 5716 5711 5706 5702 5699 5695 5690 5686 5681 5677 5672 5668 5664 5660 5655 5651 5648 5643 5639 5636 5631 5627 5624 5618 5614 5611 5607 5604 5603 5600 5598 5596 5595 5593 5594 5592 5590 5591 5591 5590 5591 5591 5591 5594
5726 5720 5714 5709 5704 5701 5697 5692 5689 5684 5679 5673 5670 5666 5662 5658 5654 5650 5647 5643 5639 5635 5630 5627 5623 5620 5616 5611 5606 5603 5601 5598 5596 5594 5592 5591 5590 5592 5592 5591 5588 5588 5588 5587 5589 5591 5592
5717 5710 5706 5701 5697 5692 5689 5685 5680 5675 5671 5666 5662 5660 5656 5652 5650 5645 5642 5638 5634 5628 5624 5621 5617 5613 5609 5606 5604 5599 5596 5591 5590 5588 5587 5586 5584 5586 5588 5588 5589 5587 5586 5587 5587 5591 5593
5710 5702 5697 5692 5687 5684 5680 5675 5670 5666 5663 5660 5657 5654 5650 5647 5643 5639 5635 5631 5627 5622 5618 5615 5611 5608 5603 5599 5596 5594 5591 5588 5584 5581 5580 5582 5579 5579 5581 5585 5584 5584 5583 5583 5586 5587 5591
5702 5697 5690 5685 5681 5676 5672 5667 5663 5660 5658 5655 5653 5648 5644 5639 5635 5630 5625 5621 5616 5612 5608 5604 5600 5597 5594 5591 5587 5586 5583 5580 5579 5575 5573 5570 5571 5573 5575 5575 5577 5578 5578 5579 5580 5583 5587
5692 5687 5682 5676 5671 5668 5662 5658 5655 5652 5650 5647 5645 5641 5635 5631 5626 5620 5615 5610 5605 5600 5597 5592 5590 5585 5582 5579 5576 5574 5572 5571 5570 5569 5565 5562 5561 5565 5566 5568 5569 5571 5573 5573 5576 5579 5582
5682 5678 5674 5669 5664 5659 5655 5650 5646 5643 5641 5638 5634 5630 5625 5620 5614 5609 5603 5598 5593 5587 5583 5579 5575 5571 5567 5564 5560 5560 5558 5556 5557 5557 5556 5554 5552 5553 5557 5558 5559 5561 5565 5568 5571 5575 5578
5673 5669 5665 5661 5656 5651 5647 5643 5638 5634 5631 5628 5625 5619 5613 5608 5602 5597 5591 5584 5578 5572 5570 5561 5557 5553 5548 5544 5541 5540 5540 5540 5539 5542 5544 5543 5543 5543 5543 5547 5547 5547 5559 5563 5567 5568 5572
5665 5660 5656 5651 5648 5644 5640 5635 5630 5625 5621 5616 5613 5608 5602 5595 5589 5584 5577 5570 5563 5557 5552 5546 5539 5533 5530 5525 5521 5520 5520 5521 5523 5526 5529 5531 5531 5532 5533 5534 5534 5538 5546 5552 5555 5559 5560
5658 5652 5647 5644 5640 5635 5631 5625 5620 5615 5610 5605 5600 5594 5589 5583 5576 5572 5563 5555 5548 5541 5534 5529 5522 5517 5512 5509 5507 5506 5507 5505 5509 5511 5515 5518 5520 5519 5521 5523 5526 5527 5531 5538 5543 5548 5551
5650 5644 5640 5635 5630 5625 5621 5615 5610 5604 5597 5591 5586 5579 5573 5567 5565 5555 5547 5540 5533 5526 5522 5515 5510 5504 5502 5499 5497 5494 5495 5494 5494 5498 5502 5505 5506 5509 5509 5512 5514 5519 5519 5521 5528 5534 5538
5643 5638 5633 5626 5620 5615 5609 5603 5597 5591 5585 5577 5570 5563 5557 5552 5550 5539 5531 5524 5517 5510 5504 5501 5498 5497 5494 5490 5488 5487 5487 5486 5486 5488 5491 5492 5493 5496 5497 5498 5504 5507 5508 5510 5512 5519 5522
5636 5630 5623 5616 5609 5602 5596 5590 5583 5576 5570 5564 5555 5548 5541 5539 5535 5524 5517 5510 5502 5497 5490 5488 5486 5487 5483 5480 5479 5479 5478 5478 5479 5480 5481 5482 5483 5485 5487 5489 5493 5494 5499 5501 5501 5502 5505
5628 5621 5613 5606 5599 5590 5582 5574 5567 5560 5554 5548 5540 5533 5527 5524 5521 5513 5504 5496 5489 5482 5478 5475 5474 5472 5470 5469 5468 5468 5469 5469 5470 5471 5473 5475 5475 5476 5478 5480 5480 5482 5486 5489 5491 5492 5495
Wind_Speed
23 24 23 23 25 25 25 26 29 33 30 31 33 35 37 38 38 36 35 34 37 37 40 40 41 43 46 48 53 56 59 64 67 68 67 58 47 48 48 48 46 47 38 46 53 53 70
22 24 25 26 27 27 28 30 32 33 33 35 36 36 37 37 36 35 35 37 39 41 41 43 42 44 47 51 52 54 59 61 62 60 52 41 39 40 35 34 40 38 39 44 45 55 77
24 25 25 28 30 30 33 33 32 33 33 34 33 35 35 35 38 37 37 40 42 42 43 43 40 40 45 47 49 51 54 54 53 47 39 34 28 27 28 25 29 34 37 45 44 51 67
28 29 29 29 31 31 32 34 37 37 36 38 38 38 36 36 39 39 41 44 45 44 43 44 40 40 43 42 44 47 46 43 45 44 32 28 26 23 23 29 33 31 36 41 38 46 60
32 33 33 33 33 34 34 35 37 38 40 39 40 41 40 41 42 43 43 45 49 48 44 45 43 39 36 39 38 40 34 36 44 41 32 25 19 10 22 17 17 22 25 28 34 46 54
36 37 37 37 40 36 34 37 39 40 41 42 43 42 41 44 45 44 46 46 48 50 48 42 36 35 34 32 33 26 30 36 44 39 38 31 17 11 18 18 21 25 20 24 27 37 41
39 39 40 42 45 40 36 38 40 40 42 44 45 45 45 43 43 39 43 41 45 45 37 37 33 38 30 27 25 19 23 32 39 36 29 27 23 13 6 6 9 7 6 14 21 32 43
41 42 42 43 44 38 36 39 41 42 43 41 37 34 35 37 37 38 37 35 35 33 35 34 37 29 20 22 13 16 18 24 32 29 26 28 24 11 6 3 7 9 7 16 22 28 44
44 45 43 45 42 38 37 37 36 34 36 33 33 32 32 32 33 34 35 32 33 34 32 34 27 23 18 15 7 14 12 19 27 29 26 22 27 28 23 15 9 14 9 15 19 13 44
46 46 44 43 36 34 33 32 31 34 34 37 35 33 31 28 29 29 29 29 28 30 31 29 27 18 15 14 9 13 11 11 21 28 27 27 34 23 21 14 8 16 10 9 21 16 32
47 48 40 30 34 30 30 33 36 38 37 36 34 33 27 25 27 29 28 29 30 30 29 27 24 20 15 12 8 13 17 12 14 22 25 21 21 22 24 18 16 6 9 11 16 11 19
43 34 30 31 29 32 36 38 38 39 38 36 30 24 20 24 29 34 31 29 28 30 28 23 21 21 17 17 12 8 17 19 13 17 20 17 13 19 25 28 21 19 14 11 9 16 22
30 30 33 33 34 37 38 37 38 37 31 28 25 21 22 27 29 33 30 26 24 25 23 22 22 20 21 16 14 7 9 16 22 17 16 15 15 14 14 19 16 15 11 10 9 15 30
34 33 34 37 40 43 38 36 35 28 27 26 23 23 25 28 30 32 27 25 23 25 22 22 21 20 18 19 17 13 11 15 21 21 18 13 16 12 11 14 16 7 7 4 10 13 15
35 36 36 42 45 41 36 32 26 27 28 28 25 25 25 28 29 30 26 24 24 25 24 24 22 23 18 15 15 21 17 15 19 22 23 22 16 13 7 6 9 5 3 4 7 11 17
45 46 44 47 44 32 27 27 31 34 34 30 26 26 26 29 28 26 23 23 25 27 26 26 25 22 23 18 14 15 23 21 19 21 22 21 23 17 10 3 8 6 3 4 4 10 19
46 48 45 43 41 34 32 33 36 38 36 33 30 28 27 24 21 21 23 26 26 28 28 29 29 27 26 23 19 15 15 21 24 22 22 23 24 21 15 13 12 9 5 7 4 11 15
45 42 42 41 39 34 35 39 38 37 33 29 25 22 19 21 23 24 25 27 27 29 28 29 29 30 30 29 27 22 15 16 22 29 27 25 25 24 20 19 20 17 14 11 12 14 17
48 41 39 38 35 33 37 40 35 28 21 20 20 22 23 25 27 29 32 32 34 35 36 37 38 36 35 35 33 26 24 22 19 25 35 31 28 26 24 22 23 25 22 17 20 20 20
52 46 39 35 34 36 39 37 27 20 23 23 24 26 29 31 32 36 37 37 39 40 41 42 42 42 42 40 41 39 32 30 24 24 26 33 38 31 28 26 25 28 25 24 22 23 20
52 45 39 36 36 39 36 29 24 24 26 28 29 31 33 36 37 40 41 41 43 45 45 47 46 47 47 46 46 46 45 40 34 29 27 29 27 39 34 31 31 31 33 32 29 23 24
52 45 39 39 39 37 32 27 26 29 31 32 33 36 40 41 44 44 45 45 47 49 49 51 52 54 55 54 55 52 52 50 44 37 33 31 31 33 43 40 37 38 37 39 34 26 23
46 41 39 40 39 34 33 32 32 33 35 37 37 40 44 46 49 49 48 50 53 54 53 56 58 60 60 59 58 56 56 55 53 43 36 36 34 32 31 49 48 47 40 42 41 39 33
40 39 40 39 37 35 35 36 38 39 38 40 40 45 47 51 51 49 50 53 54 55 57 59 61 62 59 53 51 49 49 50 50 44 38 36 38 36 35 33 48 56 47 43 47 43 38
42 41 39 38 37 37 39 40 41 43 44 44 47 48 52 52 52 50 53 53 55 57 57 59 52 51 47 34 36 37 35 40 41 40 35 34 37 39 39 38 35 34 51 52 49 46 43
42 40 39 39 39 40 42 44 45 46 47 50 50 53 55 53 50 52 53 54 56 56 57 50 39 35 34 31 34 35 28 27 31 31 31 28 33 39 37 38 39 34 34 38 62 56 52
43 41 41 41 42 44 45 46 47 50 52 53 54 57 56 54 52 53 54 54 55 54 51 44 37 35 35 34 29 26 23 25 23 26 25 28 28 33 36 38 37 33 35 34 35 50 64
46 46 46 47 48 51 51 51 52 54 55 57 58 59 58 54 52 53 53 53 53 47 45 42 41 36 37 33 32 29 30 25 25 28 27 26 30 31 34 37 37 37 33 31 28 33 42
50 51 53 53 53 55 56 56 56 57 58 59 59 59 55 53 51 51 51 51 45 43 41 38 38 38 38 35 38 37 36 33 34 27 21 24 24 26 28 30 33 35 32 33 31 29 29
Wind_Direction
336 328 326 325 327 327 321 318 320 324 314 311 310 312 313 313 313 314 313 314 315 315 313 312 311 310 312 313 310 309 309 308 310 312 307 299 288 279 277 273 260 251 252 251 239 233 213
327 328 324 324 323 326 324 322 321 325 323 322 310 312 316 316 313 313 312 313 315 314 312 316 310 311 309 312 313 312 313 316 320 319 310 296 289 285 283 275 256 253 250 246 244 228 222
326 323 321 320 319 320 324 330 324 324 322 322 323 318 314 311 311 312 313 312 310 314 308 313 311 309 309 315 313 320 322 328 334 339 323 302 289 291 285 279 262 255 254 242 246 226 228
326 323 320 317 319 318 317 319 320 323 318 318 319 315 318 315 309 306 307 314 310 308 304 305 310 306 314 315 320 326 332 342 359 359 338 308 296 292 292 285 272 263 252 250 240 221 219
324 322 320 318 315 315 318 318 319 320 320 318 316 315 314 313 313 311 310 306 307 304 301 301 306 311 317 317 331 335 340 358 8 2 348 333 313 296 289 295 275 263 261 251 226 219 218
322 321 320 317 315 314 316 318 319 321 321 317 314 312 310 311 311 311 311 311 311 307 300 305 317 316 316 323 337 343 354 23 20 16 23 15 340 307 301 292 292 284 269 247 222 215 214
318 317 317 318 321 322 321 321 319 314 317 315 312 310 308 308 308 311 311 313 319 319 323 322 318 321 318 330 338 341 18 24 22 32 32 32 34 17 313 312 290 259 229 210 197 201 212
315 315 317 318 320 322 320 318 318 317 318 317 317 319 315 313 314 314 315 322 325 325 330 328 325 324 316 335 336 339 27 17 16 24 28 23 24 34 42 58 128 67 148 172 183 206 205
318 317 317 318 319 322 325 328 329 333 336 345 331 328 330 326 324 320 320 325 327 327 332 332 330 332 319 337 327 327 14 19 11 20 19 8 1 8 21 32 4 103 157 162 169 196 204
316 317 316 317 324 326 327 331 330 332 331 332 331 332 330 337 342 343 341 341 339 339 348 348 345 332 309 322 323 298 324 2 12 11 20 27 22 17 1 52 43 65 88 138 164 177 214
316 317 322 327 328 334 334 333 331 328 326 327 330 326 329 334 337 340 342 344 345 346 353 352 351 338 309 307 345 277 295 322 359 5 15 28 19 12 25 22 359 73 117 148 198 227 213
323 329 328 336 336 334 330 329 327 325 323 327 329 329 333 337 339 340 338 338 343 351 355 353 348 343 320 285 304 296 285 301 306 340 2 30 24 9 21 13 80 103 122 152 202 241 221
338 338 336 334 332 329 326 325 326 326 329 330 329 324 327 329 334 341 338 340 340 346 354 354 348 355 338 285 279 285 293 289 291 306 326 359 352 13 10 40 82 67 130 192 248 262 214
339 334 338 334 332 326 322 322 324 334 334 329 326 320 320 325 329 334 332 332 334 339 346 347 348 356 358 332 281 285 278 292 288 298 295 310 334 345 18 43 53 58 103 241 256 232 233
333 333 332 331 329 330 328 326 330 330 330 327 322 317 317 320 324 325 322 322 327 331 336 343 339 341 352 351 312 279 267 271 285 284 284 294 298 319 1 73 76 114 122 213 240 234 255
330 329 324 324 328 329 333 328 323 323 324 319 318 316 317 317 318 319 323 324 327 328 329 331 333 333 333 336 332 315 284 268 267 273 275 273 279 286 302 209 159 140 169 195 245 220 231
326 321 320 320 322 322 322 322 320 317 317 314 311 309 313 315 320 322 322 322 322 320 318 320 323 328 325 321 323 319 317 277 264 258 269 272 261 270 273 238 223 211 208 221 186 196 195
326 322 318 317 317 316 321 326 321 316 318 313 312 315 314 315 316 317 315 317 314 310 309 312 311 313 315 315 315 313 307 292 267 260 254 258 258 262 259 255 223 232 223 207 203 201 197
325 321 317 315 314 316 319 323 319 318 322 323 319 315 311 311 312 309 310 310 307 304 303 303 301 300 300 300 302 301 297 293 288 271 262 248 246 257 254 253 242 233 236 221 204 190 196
324 322 316 316 317 317 320 319 313 309 308 307 308 306 305 306 308 307 306 307 304 302 301 299 298 296 293 291 292 292 287 285 279 277 278 266 244 244 250 251 248 235 232 229 211 196 197
319 317 312 311 313 316 317 310 301 298 298 300 304 305 305 306 307 306 304 303 301 300 300 299 298 293 291 288 283 282 282 282 278 269 271 272 261 242 244 248 244 234 233 224 218 210 198
316 313 310 310 312 314 306 296 291 294 298 300 302 304 303 305 307 306 305 302 302 302 302 299 298 295 293 288 283 277 272 272 273 269 265 262 263 251 234 243 243 234 226 223 222 229 221
317 311 311 312 313 306 297 292 293 294 297 298 302 304 306 306 309 307 304 304 302 303 303 302 300 297 291 287 283 278 272 268 269 268 259 254 256 254 249 237 245 238 229 225 234 243 245
319 317 314 311 308 300 295 292 294 296 296 298 303 303 304 306 307 305 304 302 306 307 307 305 302 298 294 288 284 280 274 270 267 269 264 250 249 249 251 251 243 239 235 233 234 239 242
319 317 313 310 306 300 296 295 294 295 296 300 302 303 305 305 305 305 304 306 308 309 307 307 301 295 292 287 285 292 284 275 268 265 260 251 250 252 250 247 253 258 242 235 235 235 236
326 324 320 314 306 302 298 296 294 293 295 298 299 301 303 304 307 307 309 309 310 309 308 303 294 296 303 286 289 291 286 290 275 266 256 248 243 247 249 248 252 250 253 247 231 236 235
327 324 319 313 306 301 298 294 292 292 294 295 298 300 301 303 310 311 312 312 311 308 304 298 292 292 293 292 281 274 273 279 288 271 254 240 236 239 243 248 247 257 255 252 245 237 234
323 319 315 310 306 302 299 296 294 293 293 294 294 296 301 305 309 310 313 312 309 306 299 294 291 289 287 277 271 268 266 265 288 298 267 253 245 241 243 246 249 250 249 248 247 242 236
322 318 314 310 307 303 300 297 296 295 295 295 296 300 304 307 309 312 312 310 307 298 292 289 290 290 283 278 263 259 272 276 281 270 266 256 251 245 242 241 245 248 248 244 245 246 243